| time (UTC) | temp F | wind direction | speed knots | gust knots | rain 1hr in | rain 24hr in | rain mn in | humidity % | barometer mb |
| 20260502191337 | 66 | 147 | 0.0 | 1.7 | 0.00 | 0.00 | 0.00 | 64 | 1013.3 |
| 20260502190821 | 66 | 131 | 0.0 | 5.2 | 0.00 | 0.00 | 0.00 | 65 | 1013.4 |
| 20260502190322 | 65 | 231 | 1.7 | 5.2 | 0.00 | 0.00 | 0.00 | 66 | 1013.4 |
| 20260502185822 | 65 | 120 | 0.0 | 4.3 | 0.00 | 0.00 | 0.00 | 67 | 1013.5 |
| 20260502185329 | 64 | 232 | 0.0 | 4.3 | 0.00 | 0.00 | 0.00 | 67 | 1013.6 |
| 20260502184815 | 63 | 147 | 0.0 | 4.3 | 0.00 | 0.00 | 0.00 | 69 | 1013.6 |
| 20260502184335 | 62 | 136 | 0.0 | 4.3 | 0.00 | 0.00 | 0.00 | 71 | 1013.8 |
| 20260502183832 | 62 | 265 | 0.0 | 1.7 | 0.00 | 0.00 | 0.00 | 72 | 1013.9 |
| 20260502183334 | 61 | 233 | 0.0 | 2.6 | 0.00 | 0.00 | 0.00 | 73 | 1013.9 |
| 20260502182821 | 60 | 260 | 0.0 | 4.3 | 0.00 | 0.00 | 0.00 | 74 | 1013.9 |
| 20260502182320 | 60 | 264 | 1.7 | 4.3 | 0.00 | 0.00 | 0.00 | 73 | 1013.9 |
| 20260502181829 | 60 | 263 | 1.7 | 4.3 | 0.00 | 0.00 | 0.00 | 72 | 1014.0 |
| 20260502181331 | 60 | 235 | 0.9 | 2.6 | 0.00 | 0.00 | 0.00 | 72 | 1013.9 |
| 20260502180815 | 60 | 333 | 0.0 | 0.9 | 0.00 | 0.00 | 0.00 | 73 | 1014.0 |
| 20260502180335 | 60 | 221 | 0.0 | 0.9 | 0.00 | 0.00 | 0.00 | 75 | 1014.1 |
| 20260502170335 | 57 | 246 | 0.0 | 0.0 | 0.00 | 0.00 | 0.00 | 79 | 1014.4 |
| 20260502164319 | 57 | 105 | 0.9 | 1.7 | 0.00 | 0.00 | 0.00 | 78 | 1014.4 |
| 20260502163851 | 57 | 103 | 0.0 | 0.0 | 0.00 | 0.00 | 0.00 | 78 | 1014.4 |
| 20260502163321 | 57 | 103 | 0.0 | 0.9 | 0.00 | 0.00 | 0.00 | 79 | 1014.5 |
| 20260502162833 | 57 | 101 | 0.0 | 0.0 | 0.00 | 0.00 | 0.00 | 79 | 1014.6 |
| 20260502162324 | 56 | 101 | 0.0 | 0.0 | 0.00 | 0.00 | 0.00 | 80 | 1014.6 |
| 20260502161816 | 56 | 101 | 0.0 | 0.0 | 0.00 | 0.00 | 0.00 | 80 | 1014.7 |
| 20260502161347 | 56 | 101 | 0.0 | 0.0 | 0.00 | 0.00 | 0.00 | 81 | 1014.7 |
| 20260502160818 | 56 | 101 | 0.0 | 0.0 | 0.00 | 0.00 | 0.00 | 81 | 1014.7 |
| 20260502160328 | 55 | 101 | 0.0 | 1.7 | 0.00 | 0.00 | 0.00 | 82 | 1014.7 |
| 20260502152324 | 53 | 236 | 0.0 | 0.0 | 0.00 | 0.00 | 0.00 | 85 | 1014.7 |
| 20260502151816 | 53 | 236 | 0.0 | 0.0 | 0.00 | 0.00 | 0.00 | 87 | 1014.6 |
| 20260502151328 | 52 | 263 | 0.0 | 0.9 | 0.00 | 0.00 | 0.00 | 87 | 1014.7 |
| 20260502150824 | 52 | 266 | 0.0 | 0.9 | 0.00 | 0.00 | 0.00 | 87 | 1014.5 |
| 20260502150315 | 52 | 266 | 0.0 | 0.0 | 0.00 | 0.00 | 0.00 | 87 | 1014.6 |
| 20260502130326 | 49 | 66 | 0.0 | 0.0 | 0.00 | 0.00 | 0.00 | 89 | 1014.2 |
| 20260502123324 | 50 | 66 | 0.0 | 0.0 | 0.00 | 0.00 | 0.00 | 88 | 1014.3 |
| 20260502122837 | 50 | 66 | 0.0 | 0.9 | 0.00 | 0.00 | 0.00 | 88 | 1014.3 |
| 20260502122328 | 50 | 66 | 0.0 | 0.0 | 0.00 | 0.00 | 0.00 | 87 | 1014.3 |
| 20260502121820 | 50 | 66 | 0.0 | 0.0 | 0.00 | 0.00 | 0.00 | 87 | 1014.3 |
| 20260502121332 | 51 | 66 | 0.0 | 0.0 | 0.00 | 0.00 | 0.00 | 87 | 1014.3 |
| 20260502120824 | 51 | 66 | 0.0 | 0.0 | 0.00 | 0.00 | 0.00 | 87 | 1014.4 |
| 20260502120320 | 51 | 66 | 0.0 | 0.0 | 0.00 | 0.00 | 0.00 | 87 | 1014.3 |
| 20260502115832 | 50 | 66 | 0.0 | 0.0 | 0.00 | 0.00 | 0.00 | 87 | 1014.3 |
| 20260502115325 | 50 | 289 | 0.0 | 0.0 | 0.00 | 0.00 | 0.00 | 87 | 1014.3 |
| 20260502114836 | 50 | 289 | 0.0 | 0.0 | 0.00 | 0.00 | 0.00 | 87 | 1014.4 |
| 20260502114328 | 50 | 289 | 0.0 | 0.0 | 0.00 | 0.00 | 0.00 | 88 | 1014.3 |
| 20260502113818 | 50 | 289 | 0.0 | 0.0 | 0.00 | 0.00 | 0.00 | 88 | 1014.3 |
| 20260502113331 | 50 | 289 | 0.0 | 0.0 | 0.00 | 0.00 | 0.00 | 88 | 1014.4 |
| 20260502112823 | 50 | 289 | 0.0 | 0.0 | 0.00 | 0.00 | 0.00 | 87 | 1014.5 |
| 20260502112320 | 50 | 289 | 0.0 | 0.0 | 0.00 | 0.00 | 0.00 | 88 | 1014.5 |
| 20260502111833 | 50 | 289 | 0.0 | 0.0 | 0.00 | 0.00 | 0.00 | 87 | 1014.5 |
| 20260502111326 | 50 | 289 | 0.0 | 0.0 | 0.00 | 0.00 | 0.00 | 87 | 1014.5 |
| 20260502110819 | 50 | 289 | 0.0 | 0.0 | 0.00 | 0.00 | 0.00 | 87 | 1014.5 |
| 20260502110331 | 50 | 289 | 0.0 | 0.0 | 0.00 | 0.00 | 0.00 | 87 | 1014.5 |
| 20260502105823 | 50 | 289 | 0.0 | 0.0 | 0.00 | 0.00 | 0.00 | 86 | 1014.4 |
| 20260502105315 | 51 | 289 | 0.0 | 0.0 | 0.00 | 0.00 | 0.00 | 86 | 1014.4 |
| 20260502104848 | 51 | 289 | 0.0 | 0.0 | 0.00 | 0.00 | 0.00 | 86 | 1014.6 |
| 20260502104319 | 51 | 289 | 0.0 | 0.0 | 0.00 | 0.00 | 0.00 | 85 | 1014.5 |
| 20260502103837 | 51 | 289 | 0.0 | 0.0 | 0.00 | 0.00 | 0.00 | 86 | 1014.7 |
| 20260502103328 | 51 | 289 | 0.0 | 0.0 | 0.00 | 0.00 | 0.00 | 85 | 1014.6 |
| 20260502102818 | 51 | 289 | 0.0 | 0.0 | 0.00 | 0.00 | 0.00 | 85 | 1014.6 |
| 20260502102330 | 51 | 289 | 0.0 | 0.0 | 0.00 | 0.00 | 0.00 | 84 | 1014.7 |
| 20260502101823 | 51 | 289 | 0.0 | 0.0 | 0.00 | 0.00 | 0.00 | 85 | 1014.7 |
| 20260502101314 | 51 | 289 | 0.0 | 0.0 | 0.00 | 0.00 | 0.00 | 85 | 1014.7 |
| 20260502100826 | 51 | 289 | 0.0 | 0.0 | 0.00 | 0.00 | 0.00 | 85 | 1014.7 |
| 20260502100317 | 51 | 289 | 0.0 | 0.0 | 0.00 | 0.00 | 0.00 | 85 | 1014.7 |
| 20260502091326 | 52 | 289 | 0.0 | 0.0 | 0.00 | 0.00 | 0.00 | 83 | 1015.1 |
| 20260502090822 | 52 | 289 | 0.0 | 0.0 | 0.00 | 0.00 | 0.00 | 83 | 1015.1 |
| 20260502090315 | 52 | 289 | 0.0 | 0.0 | 0.00 | 0.00 | 0.00 | 82 | 1015.1 |
| 20260502071326 | 55 | 97 | 0.0 | 0.0 | 0.00 | 0.00 | 0.00 | 75 | 1015.8 |
| 20260502070838 | 56 | 97 | 0.0 | 0.0 | 0.00 | 0.00 | 0.00 | 74 | 1015.7 |
| 20260502070329 | 56 | 97 | 0.0 | 0.0 | 0.00 | 0.00 | 0.00 | 73 | 1015.7 |
| 20260502065822 | 57 | 97 | 0.0 | 0.9 | 0.00 | 0.00 | 0.00 | 72 | 1015.7 |
| 20260502065317 | 57 | 97 | 0.0 | 0.9 | 0.00 | 0.00 | 0.00 | 71 | 1015.8 |
| 20260502064829 | 57 | 97 | 0.0 | 2.6 | 0.00 | 0.00 | 0.00 | 71 | 1015.6 |
| 20260502064322 | 57 | 98 | 0.0 | 2.6 | 0.00 | 0.00 | 0.00 | 71 | 1015.8 |
| 20260502063813 | 57 | 102 | 0.9 | 0.9 | 0.00 | 0.00 | 0.00 | 73 | 1015.8 |
| 20260502063325 | 56 | 96 | 0.0 | 0.0 | 0.00 | 0.00 | 0.00 | 74 | 1015.8 |
| 20260502062817 | 56 | 96 | 0.0 | 0.0 | 0.00 | 0.00 | 0.00 | 74 | 1015.8 |
| 20260502062330 | 56 | 96 | 0.0 | 0.0 | 0.00 | 0.00 | 0.00 | 74 | 1015.8 |
| 20260502061841 | 56 | 96 | 0.0 | 0.0 | 0.00 | 0.00 | 0.00 | 74 | 1015.9 |
| 20260502061330 | 56 | 96 | 0.0 | 0.0 | 0.00 | 0.00 | 0.00 | 73 | 1015.9 |
| 20260502060826 | 56 | 96 | 0.0 | 0.0 | 0.00 | 0.00 | 0.00 | 73 | 1015.9 |
| 20260502060318 | 57 | 96 | 0.0 | 0.0 | 0.00 | 0.00 | 0.00 | 71 | 1015.9 |
| 20260502055829 | 57 | 96 | 0.0 | 0.0 | 0.00 | 0.00 | 0.00 | 70 | 1015.9 |
| 20260502055321 | 57 | 96 | 0.0 | 0.0 | 0.00 | 0.00 | 0.00 | 70 | 1015.9 |
| 20260502054833 | 57 | 96 | 0.0 | 0.0 | 0.00 | 0.00 | 0.00 | 70 | 1015.7 |
| 20260502054326 | 58 | 96 | 0.0 | 0.9 | 0.00 | 0.00 | 0.00 | 69 | 1015.7 |
| 20260502053818 | 58 | 96 | 0.0 | 0.9 | 0.00 | 0.00 | 0.00 | 69 | 1015.9 |
| 20260502053331 | 58 | 95 | 0.0 | 0.0 | 0.00 | 0.00 | 0.00 | 68 | 1015.9 |
| 20260502052843 | 58 | 95 | 0.0 | 0.0 | 0.00 | 0.00 | 0.00 | 67 | 1015.8 |
| 20260502052335 | 59 | 95 | 0.0 | 0.9 | 0.00 | 0.00 | 0.00 | 67 | 1015.9 |
| 20260502051831 | 59 | 95 | 0.0 | 0.9 | 0.00 | 0.00 | 0.00 | 66 | 1015.9 |
| 20260502051322 | 59 | 96 | 0.0 | 0.9 | 0.00 | 0.00 | 0.00 | 66 | 1015.9 |
| 20260502050815 | 59 | 12 | 0.0 | 1.7 | 0.00 | 0.00 | 0.00 | 66 | 1015.8 |
| 20260502050327 | 59 | 100 | 0.9 | 1.7 | 0.00 | 0.00 | 0.00 | 66 | 1015.8 |
| 20260502045819 | 59 | 103 | 0.0 | 0.0 | 0.00 | 0.00 | 0.00 | 65 | 1015.8 |
| 20260502045332 | 59 | 102 | 0.0 | 0.9 | 0.00 | 0.00 | 0.00 | 65 | 1015.6 |
| 20260502044825 | 60 | 102 | 0.0 | 0.9 | 0.00 | 0.00 | 0.00 | 64 | 1015.5 |
| 20260502044336 | 60 | 102 | 0.0 | 0.0 | 0.00 | 0.00 | 0.00 | 64 | 1015.6 |
| 20260502043828 | 60 | 102 | 0.0 | 0.0 | 0.00 | 0.00 | 0.00 | 64 | 1015.5 |
| 20260502043323 | 60 | 102 | 0.0 | 0.0 | 0.00 | 0.00 | 0.00 | 64 | 1015.4 |
| 20260502042817 | 60 | 102 | 0.0 | 0.9 | 0.00 | 0.00 | 0.00 | 63 | 1015.5 |
| 20260502042329 | 61 | 102 | 0.0 | 0.9 | 0.00 | 0.00 | 0.00 | 63 | 1015.5 |
| 20260502041841 | 61 | 158 | 0.0 | 0.9 | 0.00 | 0.00 | 0.00 | 62 | 1015.4 |
| 20260502041331 | 61 | 112 | 0.0 | 0.0 | 0.00 | 0.00 | 0.00 | 62 | 1015.4 |
| 20260502040823 | 61 | 56 | 0.0 | 0.9 | 0.00 | 0.00 | 0.00 | 61 | 1015.3 |
| 20260502040315 | 61 | 56 | 0.0 | 1.7 | 0.00 | 0.00 | 0.00 | 60 | 1015.2 |
| 20260502035828 | 62 | 76 | 0.0 | 7.0 | 0.00 | 0.00 | 0.00 | 60 | 1015.0 |
| 20260502035323 | 62 | 92 | 0.0 | 7.0 | 0.00 | 0.00 | 0.00 | 59 | 1015.0 |
| 20260502034815 | 62 | 82 | 1.7 | 5.2 | 0.00 | 0.00 | 0.00 | 58 | 1015.0 |
| 20260502034325 | 62 | 52 | 0.0 | 5.2 | 0.00 | 0.00 | 0.00 | 57 | 1015.0 |
| 20260502033838 | 63 | 115 | 1.7 | 7.8 | 0.00 | 0.00 | 0.00 | 57 | 1014.9 |
| 20260502033330 | 63 | 22 | 3.5 | 7.8 | 0.00 | 0.00 | 0.00 | 56 | 1014.7 |
| 20260502032842 | 64 | 46 | 2.6 | 6.1 | 0.00 | 0.00 | 0.00 | 55 | 1014.7 |
| 20260502032332 | 64 | 89 | 1.7 | 7.8 | 0.00 | 0.00 | 0.00 | 55 | 1014.7 |
| 20260502031844 | 64 | 34 | 1.7 | 5.2 | 0.00 | 0.00 | 0.00 | 55 | 1014.5 |
| 20260502031336 | 64 | 330 | 0.9 | 4.3 | 0.00 | 0.00 | 0.00 | 58 | 1014.7 |
| 20260502030828 | 65 | 302 | 0.0 | 3.5 | 0.00 | 0.00 | 0.00 | 56 | 1014.6 |
| 20260502030320 | 65 | 267 | 0.9 | 5.2 | 0.00 | 0.00 | 0.00 | 57 | 1014.4 |
| 20260502025817 | 65 | 22 | 2.6 | 5.2 | 0.00 | 0.00 | 0.00 | 56 | 1014.3 |
| 20260502025330 | 65 | 340 | 0.9 | 7.0 | 0.00 | 0.00 | 0.00 | 57 | 1014.3 |
| 20260502024824 | 66 | 298 | 1.7 | 7.0 | 0.00 | 0.00 | 0.00 | 55 | 1014.3 |
| 20260502024316 | 66 | 132 | 1.7 | 6.1 | 0.00 | 0.00 | 0.00 | 54 | 1014.2 |
| 20260502023827 | 66 | 32 | 1.7 | 5.2 | 0.00 | 0.00 | 0.00 | 54 | 1014.3 |
| 20260502023319 | 67 | 81 | 1.7 | 7.0 | 0.00 | 0.00 | 0.00 | 54 | 1014.1 |
| 20260502022832 | 67 | 354 | 1.7 | 7.0 | 0.00 | 0.00 | 0.00 | 54 | 1014.0 |
| 20260502022344 | 67 | 46 | 2.6 | 5.2 | 0.00 | 0.00 | 0.00 | 54 | 1013.8 |
| 20260502021819 | 68 | 325 | 2.6 | 5.2 | 0.00 | 0.00 | 0.00 | 54 | 1013.8 |
| 20260502021330 | 68 | 13 | 0.9 | 4.3 | 0.00 | 0.00 | 0.00 | 54 | 1013.7 |
| 20260502020822 | 69 | 53 | 0.9 | 5.2 | 0.00 | 0.00 | 0.00 | 54 | 1013.6 |
| 20260502020332 | 69 | 39 | 1.7 | 6.1 | 0.00 | 0.00 | 0.00 | 53 | 1013.4 |
| 20260502015823 | 69 | 8 | 3.5 | 8.7 | 0.00 | 0.00 | 0.00 | 52 | 1013.4 |
| 20260502015315 | 70 | 39 | 2.6 | 8.7 | 0.00 | 0.00 | 0.00 | 52 | 1013.4 |
| 20260502014827 | 71 | 309 | 1.7 | 5.2 | 0.00 | 0.00 | 0.00 | 52 | 1013.4 |
| 20260502014319 | 71 | 77 | 2.6 | 5.2 | 0.00 | 0.00 | 0.00 | 51 | 1013.3 |
| 20260502013831 | 71 | 328 | 0.9 | 4.3 | 0.00 | 0.00 | 0.00 | 50 | 1013.4 |
| 20260502013327 | 71 | 309 | 0.9 | 6.1 | 0.00 | 0.00 | 0.00 | 50 | 1013.3 |
| 20260502012819 | 72 | 161 | 0.9 | 6.1 | 0.00 | 0.00 | 0.00 | 49 | 1013.3 |
| 20260502012330 | 72 | 67 | 1.7 | 6.1 | 0.00 | 0.00 | 0.00 | 49 | 1013.3 |
| 20260502011822 | 73 | 277 | 2.6 | 6.1 | 0.00 | 0.00 | 0.00 | 49 | 1013.2 |
| 20260502011314 | 73 | 323 | 0.9 | 5.2 | 0.00 | 0.00 | 0.00 | 49 | 1013.2 |
| 20260502010826 | 73 | 263 | 1.7 | 5.2 | 0.00 | 0.00 | 0.00 | 48 | 1013.1 |
| 20260502010317 | 74 | 295 | 0.9 | 6.1 | 0.00 | 0.00 | 0.00 | 47 | 1013.1 |
| 20260502005828 | 74 | 315 | 1.7 | 6.1 | 0.00 | 0.00 | 0.00 | 47 | 1013.0 |
| 20260502005323 | 74 | 290 | 2.6 | 5.2 | 0.00 | 0.00 | 0.00 | 46 | 1012.9 |
| 20260502004815 | 74 | 272 | 1.7 | 7.8 | 0.00 | 0.00 | 0.00 | 46 | 1013.0 |
| 20260502004328 | 74 | 278 | 2.6 | 7.8 | 0.00 | 0.00 | 0.00 | 45 | 1013.1 |
| 20260502003818 | 74 | 299 | 2.6 | 7.0 | 0.00 | 0.00 | 0.00 | 45 | 1013.1 |
| 20260502003349 | 74 | 269 | 3.5 | 8.7 | 0.00 | 0.00 | 0.00 | 44 | 1013.0 |
| 20260502002819 | 75 | 274 | 1.7 | 8.7 | 0.00 | 0.00 | 0.00 | 44 | 1013.0 |
| 20260502002350 | 75 | 257 | 1.7 | 8.7 | 0.00 | 0.00 | 0.00 | 44 | 1012.9 |
| 20260502001820 | 76 | 262 | 1.7 | 7.8 | 0.00 | 0.00 | 0.00 | 44 | 1012.9 |
| 20260502001331 | 76 | 257 | 1.7 | 6.1 | 0.00 | 0.00 | 0.00 | 42 | 1012.8 |
| 20260502000823 | 76 | 288 | 2.6 | 8.7 | 0.00 | 0.00 | 0.00 | 42 | 1012.8 |
| 20260502000317 | 76 | 245 | 2.6 | 8.7 | 0.00 | 0.00 | 0.00 | 42 | 1012.8 |
| 20260501235828 | 76 | 315 | 0.9 | 8.7 | 0.00 | 0.00 | 0.00 | 42 | 1012.8 |
| 20260501235320 | 76 | 281 | 3.5 | 8.7 | 0.00 | 0.00 | 0.00 | 41 | 1012.8 |
| 20260501234831 | 77 | 281 | 4.3 | 9.6 | 0.00 | 0.00 | 0.00 | 40 | 1012.8 |
| 20260501234322 | 77 | 257 | 4.3 | 9.6 | 0.00 | 0.00 | 0.00 | 40 | 1012.8 |
| 20260501233854 | 77 | 281 | 2.6 | 6.1 | 0.00 | 0.00 | 0.00 | 39 | 1012.8 |
| 20260501233325 | 77 | 285 | 3.5 | 7.0 | 0.00 | 0.00 | 0.00 | 39 | 1012.9 |
| 20260501232817 | 77 | 277 | 2.6 | 7.0 | 0.00 | 0.00 | 0.00 | 39 | 1012.9 |
| 20260501232349 | 77 | 299 | 2.6 | 7.8 | 0.00 | 0.00 | 0.00 | 39 | 1013.0 |
| 20260501231820 | 77 | 274 | 3.5 | 8.7 | 0.00 | 0.00 | 0.00 | 39 | 1013.0 |
| 20260501231315 | 78 | 247 | 0.9 | 8.7 | 0.00 | 0.00 | 0.00 | 38 | 1013.1 |
| 20260501230827 | 77 | 241 | 0.9 | 6.1 | 0.00 | 0.00 | 0.00 | 38 | 1013.1 |
| 20260501230338 | 78 | 273 | 2.6 | 6.1 | 0.00 | 0.00 | 0.00 | 38 | 1013.2 |
| 20260501225829 | 78 | 285 | 1.7 | 6.1 | 0.00 | 0.00 | 0.00 | 38 | 1013.3 |
| 20260501225339 | 78 | 232 | 2.6 | 6.1 | 0.00 | 0.00 | 0.00 | 37 | 1013.2 |
| 20260501224830 | 78 | 310 | 0.9 | 6.1 | 0.00 | 0.00 | 0.00 | 37 | 1013.4 |
| 20260501224322 | 78 | 274 | 2.6 | 6.1 | 0.00 | 0.00 | 0.00 | 36 | 1013.4 |
| 20260501223814 | 78 | 270 | 2.6 | 7.8 | 0.00 | 0.00 | 0.00 | 37 | 1013.4 |
| 20260501223326 | 78 | 256 | 1.7 | 7.0 | 0.00 | 0.00 | 0.00 | 37 | 1013.7 |
| 20260501222821 | 78 | 207 | 3.5 | 7.0 | 0.00 | 0.00 | 0.00 | 35 | 1013.7 |
| 20260501222333 | 78 | 223 | 3.5 | 7.0 | 0.00 | 0.00 | 0.00 | 36 | 1013.7 |
| 20260501221823 | 77 | 97 | 0.9 | 7.0 | 0.00 | 0.00 | 0.00 | 37 | 1013.8 |
| 20260501221315 | 77 | 250 | 2.6 | 7.0 | 0.00 | 0.00 | 0.00 | 37 | 1013.9 |
| 20260501220847 | 78 | 243 | 0.9 | 6.1 | 0.00 | 0.00 | 0.00 | 37 | 1013.9 |
| 20260501220316 | 77 | 288 | 1.7 | 5.2 | 0.00 | 0.00 | 0.00 | 38 | 1014.0 |
| 20260501215827 | 77 | 230 | 2.6 | 7.0 | 0.00 | 0.00 | 0.00 | 39 | 1014.2 |
| 20260501215319 | 77 | 224 | 1.7 | 7.0 | 0.00 | 0.00 | 0.00 | 40 | 1014.2 |
| 20260501214831 | 76 | 219 | 2.6 | 6.1 | 0.00 | 0.00 | 0.00 | 41 | 1014.3 |
| 20260501214322 | 76 | 250 | 0.9 | 6.1 | 0.00 | 0.00 | 0.00 | 38 | 1014.4 |
| 20260501213818 | 77 | 241 | 2.6 | 6.1 | 0.00 | 0.00 | 0.00 | 40 | 1014.5 |
| 20260501213328 | 76 | 262 | 0.9 | 6.1 | 0.00 | 0.00 | 0.00 | 38 | 1014.5 |
| 20260501212817 | 76 | 268 | 1.7 | 6.1 | 0.00 | 0.00 | 0.00 | 40 | 1014.5 |
| 20260501212349 | 76 | 240 | 1.7 | 6.1 | 0.00 | 0.00 | 0.00 | 40 | 1014.6 |
| 20260501211820 | 76 | 257 | 2.6 | 6.1 | 0.00 | 0.00 | 0.00 | 40 | 1014.7 |
| 20260501211352 | 76 | 300 | 2.6 | 6.1 | 0.00 | 0.00 | 0.00 | 38 | 1014.7 |
| 20260501210821 | 76 | 236 | 0.9 | 6.1 | 0.00 | 0.00 | 0.00 | 38 | 1014.8 |
| 20260501210332 | 76 | 312 | 0.9 | 3.5 | 0.00 | 0.00 | 0.00 | 41 | 1014.8 |
| 20260501205822 | 76 | 250 | 1.7 | 4.3 | 0.00 | 0.00 | 0.00 | 40 | 1014.9 |
| 20260501205313 | 75 | 259 | 2.6 | 4.3 | 0.00 | 0.00 | 0.00 | 41 | 1015.0 |
| 20260501204825 | 75 | 294 | 1.7 | 4.3 | 0.00 | 0.00 | 0.00 | 39 | 1015.0 |
| 20260501204317 | 75 | 263 | 0.9 | 6.1 | 0.00 | 0.00 | 0.00 | 43 | 1015.0 |
| 20260501203849 | 74 | 201 | 1.7 | 6.1 | 0.00 | 0.00 | 0.00 | 46 | 1015.0 |
| 20260501203344 | 73 | 330 | 0.9 | 4.3 | 0.00 | 0.00 | 0.00 | 45 | 1015.3 |
| 20260501202815 | 72 | 305 | 0.9 | 5.2 | 0.00 | 0.00 | 0.00 | 46 | 1015.3 |
| 20260501202326 | 72 | 266 | 0.9 | 6.1 | 0.00 | 0.00 | 0.00 | 47 | 1015.3 |
| 20260501201818 | 72 | 257 | 3.5 | 6.1 | 0.00 | 0.00 | 0.00 | 45 | 1015.5 |
| 20260501201329 | 73 | 233 | 1.7 | 4.3 | 0.00 | 0.00 | 0.00 | 45 | 1015.5 |
| 20260501200841 | 72 | 271 | 0.9 | 5.2 | 0.00 | 0.00 | 0.00 | 47 | 1015.5 |
| 20260501200332 | 71 | 278 | 1.7 | 5.2 | 0.00 | 0.00 | 0.00 | 47 | 1015.6 |
| 20260501195824 | 71 | 228 | 0.9 | 3.5 | 0.00 | 0.00 | 0.00 | 47 | 1015.6 |
| 20260501195316 | 71 | 262 | 1.7 | 4.3 | 0.00 | 0.00 | 0.00 | 48 | 1015.7 |
| 20260501194827 | 71 | 267 | 0.9 | 4.3 | 0.00 | 0.00 | 0.00 | 48 | 1015.8 |
| 20260501194323 | 70 | 293 | 0.0 | 5.2 | 0.00 | 0.00 | 0.00 | 50 | 1015.8 |
| 20260501193814 | 69 | 277 | 1.7 | 5.2 | 0.00 | 0.00 | 0.00 | 49 | 1015.9 |
| 20260501193325 | 69 | 149 | 0.0 | 5.2 | 0.00 | 0.00 | 0.00 | 52 | 1016.0 |
| 20260501192816 | 69 | 272 | 0.9 | 3.5 | 0.00 | 0.00 | 0.00 | 49 | 1016.0 |
| 20260501192328 | 68 | 277 | 0.9 | 6.1 | 0.00 | 0.00 | 0.00 | 51 | 1016.1 |
| 20260501191820 | 68 | 234 | 0.9 | 3.5 | 0.00 | 0.00 | 0.00 | 53 | 1016.2 |